Montross, Virginia, United States (22520)
Lat: 38.09N, Lon: 76.83W
Wx Zone: VAZ075
Local Info
Past Weather Observations for Monday, September 15, 2014

NOTE: This archive is for the closest National Weather Service station to Montross. Information may differ from the station used for current weather conditions.

Click here for Long-term Archive

Time Weather Temperature Dewpoint Humidity Pressure Winds Precip Visibility
23:52
Clear
66°F / 19°C 61°F / 16°C 83% 30.04 in
(1017 mb)
S 9.2 mph
(S 15 kph)
- 10SM
22:52
Clear
66°F / 19°C 61°F / 16°C 83% 30.06 in
(1018 mb)
S 4.6 mph
(S 7 kph)
- 10SM
21:52
Mostly Cloudy
66°F / 19°C 59°F / 15°C 78% 30.09 in
(1019 mb)
S 6.9 mph
(S 11 kph)
- 10SM
20:52
Mostly Cloudy
66°F / 19°C 57°F / 14°C 73% 30.09 in
(1019 mb)
S 5.8 mph
(S 9 kph)
- 10SM
19:52
Mostly Cloudy
64°F / 18°C 55°F / 13°C 73% 30.12 in
(1020 mb)
S 3.5 mph
(S 6 kph)
- 10SM
18:52
Partly Cloudy
66°F / 19°C 55°F / 13°C 68% 30.12 in
(1020 mb)
S 5.8 mph
(S 9 kph)
- 10SM
17:52
Mostly Cloudy
68°F / 20°C 55°F / 13°C 64% 30.12 in
(1020 mb)
S 5.8 mph
(S 9 kph)
- 10SM
16:52
Mostly Cloudy
70°F / 21°C 55°F / 13°C 60% 30.12 in
(1020 mb)
SE 8.1 mph
(SE 13 kph)
- 10SM
15:52
Partly Cloudy
72°F / 22°C 54°F / 12°C 53% 30.15 in
(1021 mb)
SE 8.1 mph
(SE 13 kph)
- 10SM
14:52
Mostly Cloudy
72°F / 22°C 52°F / 11°C 50% 30.15 in
(1021 mb)
SE 8.1 mph
(SE 13 kph)
- 10SM
13:52
Mostly Cloudy
72°F / 22°C 52°F / 11°C 50% 30.15 in
(1021 mb)
ESE 9.2 mph
(ESE 15 kph)
- 10SM
12:52
Mostly Cloudy
70°F / 21°C 54°F / 12°C 57% 30.18 in
(1022 mb)
E 8.1 mph
(E 13 kph)
- 10SM
11:52
Mostly Cloudy
70°F / 21°C 54°F / 12°C 57% 30.21 in
(1023 mb)
ESE 9.2 mph
(ESE 15 kph)
- 10SM
10:52
Mostly Cloudy
68°F / 20°C 55°F / 13°C 64% 30.24 in
(1024 mb)
ESE 8.1 mph
(ESE 13 kph)
- 10SM
09:52
Mostly Cloudy
68°F / 20°C 55°F / 13°C 64% 30.24 in
(1024 mb)
E 6.9 mph
(E 11 kph)
- 10SM
08:52
Mostly Cloudy
66°F / 19°C 54°F / 12°C 64% 30.24 in
(1024 mb)
E 5.8 mph
(E 9 kph)
- 10SM
07:52
Partly Cloudy
64°F / 18°C 55°F / 13°C 73% 30.24 in
(1024 mb)
E 6.9 mph
(E 11 kph)
- 10SM
06:52
Mostly Cloudy
61°F / 16°C 57°F / 14°C 88% 30.24 in
(1024 mb)
Calm - 10SM
05:52
Mostly Cloudy
55°F / 13°C 54°F / 12°C 94% 30.24 in
(1024 mb)
SSW 4.6 mph
(SSW 7 kph)
- 10SM
04:52
Partly Cloudy
54°F / 12°C 52°F / 11°C 94% 30.21 in
(1023 mb)
SSW 4.6 mph
(SSW 7 kph)
- 10SM
03:56
Partly Cloudy
54°F / 12°C 52°F / 11°C 94% 30.21 in
(1023 mb)
SSW 4.6 mph
(SSW 7 kph)
- 10SM
03:52
Clear
54°F / 12°C 52°F / 11°C 94% 30.21 in
(1023 mb)
SSW 4.6 mph
(SSW 7 kph)
- 10SM
02:52
Overcast
57°F / 14°C 54°F / 12°C 88% 30.21 in
(1023 mb)
W 3.5 mph
(W 6 kph)
- 10SM
01:52
Clear
55°F / 13°C 54°F / 12°C 94% 30.21 in
(1023 mb)
SSW 4.6 mph
(SSW 7 kph)
- 10SM
00:52
Mostly Cloudy
59°F / 15°C 55°F / 13°C 88% 30.21 in
(1023 mb)
SSW 4.6 mph
(SSW 7 kph)
- 10SM
Time Weather Temperature Dewpoint Humidity Pressure Winds Precip Visibility


Weather for websites

WeatherForYou.com, LLC is not responsible for any damages or problems caused by this service. Current weather conditions are obtained from the closest station including government and personal stations which may have varying degrees of accuracy. Weather forecasts are derived from the NOAA NDFD. Like all things, this site belongs to Jesus Christ... He just trusts me to maintain it. If you have any questions or comments email webmaster@weatherforyou.com

Copyright © 2014, WeatherForYou.com LLC. All rights reserved.